Flag for Iceland Weather past 2 weeks in Reykjavik, Iceland

Now
48 °F

Clear.


Feels Like: 48 °F
Forecast: 49 / 58 °F
Wind: 1 mph from North

Location: Reykjavik Airport

Current Time: Jul 30, 2014 at 4:27:17 AM

Latest Report: Jul 30, 2014 at 4:00 AM


Visibility: 10 mi

Pressure: 29.83 "Hg

Humidity: 82%

Dew point: 43 °F

Location of ReykjavikLocation

Historic Weather in Reykjavik — Graph

°F

Reykjavik temperature yesterday

Maximum temperature yesterday: 63 °F (at 2:00 PM)
Minimum temperature yesterday: 52 °F (at 3:00 AM)
Average temperature yesterday: 57 °F

Past Weeks' High & Low Weather Summary

 TemperatureHumidityPressure
High63 °F (Jul 22, 2:00 PM)94% (Jul 15, 3:00 AM)30.12 "Hg (Jul 15, 3:00 AM)
Low48 °F (Jul 15, 3:00 AM)55% (Jul 27, 2:00 PM)29.47 "Hg (Jul 15, 5:00 PM)
Average55 °F80%29.84 "Hg
* Reported Jul 15 3:00 AM — Jul 30 3:00 AM, Reykjavik, Weather by CustomWeather, © 2014

Note: Actual official high and low records may vary slightly from our data, if they occured in-between our weather recording intervals... More about our weather records

Advertising

Reykjavik weather history for previous 24 hours

 ConditionsComfort  
Time TempWeatherWind HumidityBarometerVisibility
3:00 AM
Jul 30
48 °FPassing clouds.6 mph82%29.83 "HgN/A
2:00 AM52 °FClear.2 mph72%29.83 "Hg10 mi
1:00 AM52 °FClear.5 mph77%29.83 "Hg10 mi
12:00 AM54 °FPassing clouds.5 mph72%29.80 "HgN/A
11:00 PM
Jul 29
55 °FPassing clouds.5 mph72%29.80 "HgN/A
10:00 PM55 °FPartly sunny.3 mph72%29.77 "HgN/A
9:00 PM57 °FPartly sunny.10 mph72%29.77 "HgN/A
8:00 PM61 °FPassing clouds.12 mph63%29.77 "HgN/A
7:00 PM61 °FPassing clouds.17 mph63%29.77 "HgN/A
6:00 PM61 °FPassing clouds.22 mph68%29.74 "HgN/A
5:00 PM63 °FPassing clouds.24 mph64%29.74 "HgN/A
4:00 PM63 °FPassing clouds.21 mph64%29.74 "HgN/A
3:00 PM63 °FScattered clouds.17 mph64%29.74 "HgN/A
2:00 PM63 °FPassing clouds.10 mph64%29.74 "HgN/A
1:00 PM57 °FScattered clouds.12 mph77%29.74 "HgN/A
12:00 PM59 °FPassing clouds.15 mph68%29.74 "HgN/A
11:00 AM57 °FScattered clouds.14 mph72%29.71 "HgN/A
10:00 AM55 °FPassing clouds.21 mph72%29.71 "HgN/A
9:00 AM55 °FPassing clouds.14 mph72%29.71 "HgN/A
8:00 AM54 °FSunny.10 mph77%29.71 "Hg10 mi
7:00 AM54 °FScattered clouds.12 mph77%29.68 "HgN/A
6:00 AM54 °FScattered clouds.12 mph77%29.68 "HgN/A
5:00 AM52 °FScattered clouds.9 mph82%29.65 "HgN/A
4:00 AM54 °FPassing clouds.8 mph77%29.65 "HgN/A
Weather by CustomWeather, © 2014

See weather overviewHow to use our weather pages